Location: ???????
(60.4260°N, 46.9069°E)
Time: 12:53:16
(UTC+00:00)

Meteor 1-27 Rocket - Visible Passes

Search period start: 06 August 2020 00:00
Search period end: 16 August 2020 00:00
Orbit: 830 x 910 km, 81.3° (Epoch: 05 August)

Date Brightness Start Highest point End Pass type
(mag) Time Alt. Az. Time Alt. Az. Time Alt. Az.
06 Aug 5.4 18:52:43 10° NNW 18:57:48 32° W 19:02:57 10° SSW visible
07 Aug 5.4 18:46:29 10° NNW 18:51:33 31° W 18:56:40 10° SSW visible
08 Aug 5.5 18:40:15 10° NNW 18:45:18 31° W 18:50:23 10° SW visible
09 Aug 5.5 18:34:01 10° NNW 18:39:03 30° W 18:44:06 10° SW visible
10 Aug 5.6 18:27:48 10° NNW 18:32:48 30° W 18:37:50 10° SW visible
11 Aug 5.7 18:21:35 10° NNW 18:26:33 29° W 18:31:33 10° SW visible
12 Aug 5.7 18:15:21 10° NNW 18:20:18 28° W 18:25:16 10° SW visible
13 Aug 5.8 18:09:08 10° NNW 18:14:03 28° W 18:18:59 10° SW visible
14 Aug 5.8 18:02:55 10° NNW 18:07:48 27° W 18:12:42 10° SW visible
15 Aug 5.9 17:56:41 10° NNW 18:01:33 27° W 18:06:24 10° SW visible
